Torna al catalogo

IRIDIUM 33 DEB

AttivoPO
NORAD 39781·DEBRIS·🇺🇸 United States

Lanciato Sep 14, 1997 da Baikonur Cosmodrome

Loading…

Prossimi Passaggi (prossime 24 ore)

TLE

AggiornatoSource: Space-Track

Epoca: Sep 14, 2026, 10:56 UTC

1 39781U 97051AAN 26257.45562649  .00003108  00000-0  11157-2 0  9992
2 39781  86.3785 143.9610 0167568 108.5859  13.4329 14.26029002120304

Traccia IRIDIUM 33 DEB in tempo reale con AllMySat

Download on the App Store